Ailano, Italy

8:40 AM CEST on May 23, 2017 (GMT +0200)
Ailano

Weather History for 16253 - January, 2013

Change the Weather History Date:

Saturday, January 19, 2013

  Actual Average Record
Temperature  
Mean Temperature 37 °F -  
Max Temperature 45 °F 56 °F - ()
Min Temperature 29 °F 39 °F - ()
Degree Days  
Heating Degree Days 28    
Moisture  
Dew Point 35 °F    
Average Humidity 85    
Maximum Humidity 87    
Minimum Humidity 77    
Precipitation  
Precipitation 0.08 in 0.12 in - ()
Sea Level Pressure  
Sea Level Pressure 29.63 in    
Wind  
Wind Speed 5 mph ()    
Max Wind Speed 8 mph    
Max Gust Speed -    
Visibility 3.1 miles    
Events Rain    
T = Trace of Precipitation, MM = Missing Value Source: Averaged Metar Reports

Daily Weather History Graph

Daily Weather History Graph

Search for Another Location

Airport or City:

Trip Planner

Search our weather history database for the weather conditions in past years. The results will help you decide how hot, cold, wet, or windy it might be!

Date:

Astronomy

Jan. 19, 2013 Rise Set
Actual Time 7:24 AM CET 5:04 PM CET
Civil Twilight 6:54 AM CET 5:34 PM CET
Nautical Twilight 6:20 AM CET 6:08 PM CET
Astronomical Twilight 5:48 AM CET 6:41 PM CET
Moon 11:22 AM CET (1/19) 12:40 AM CET (1/19)
Length of Visible Light 10h 40m
Length of Day
9h 40m
First Quarter, 54% of the Moon is Illuminated
Jan 19
First Quarter
Jan 27
Full
Feb 3
Last Quarter
Feb 10
New
Feb 17
First Quarter

Hourly Weather History & Observations

Time (CET) Temp. Windchill Dew Point Humidity Pressure Visibility Wind Dir Wind Speed Gust Speed Precip Events Conditions
12:55 AM 32.0 °F 28.7 °F 28.4 °F 87% 29.59 in - North 3.5 mph - N/A   Clear
1:00 AM 32 °F - 29 °F 85% 29.62 in 6 mi North 3.5 mph - -  
1:55 AM 32.0 °F 27.5 °F 28.4 °F 87% 29.62 in - NE 4.6 mph - N/A   Clear
2:55 AM 32.0 °F - 28.4 °F 87% 29.62 in - Calm Calm - N/A   Clear
3:55 AM 32.0 °F 27.5 °F 28.4 °F 87% 29.62 in 5.0 mi NNE 4.6 mph - N/A   Unknown
4:00 AM 32 °F - 29 °F 82% 29.65 in 5 mi NNE 4.6 mph - -   Mist
4:55 AM 32.0 °F 26.4 °F 28.4 °F 87% 29.62 in 4.3 mi NNE 5.8 mph - N/A   Unknown
5:55 AM 32.0 °F - 28.4 °F 87% 29.65 in 3.1 mi WSW 2.3 mph - N/A   Mist
6:55 AM 30.2 °F 23.4 °F 26.6 °F 86% 29.65 in 2.2 mi NNE 6.9 mph - N/A   Scattered Clouds
7:00 AM 31 °F - 27 °F 77% 29.68 in 2 mi NNE 6.9 mph - -   Mist
7:55 AM 32.0 °F 27.5 °F 28.4 °F 87% 29.65 in 2.5 mi NE 4.6 mph - N/A   Partly Cloudy
8:55 AM 32.0 °F 27.5 °F 28.4 °F 87% 29.65 in 4.3 mi North 4.6 mph - N/A   Partly Cloudy
9:55 AM 37.4 °F 32.8 °F 33.8 °F 87% 29.65 in 3.7 mi NNE 5.8 mph - N/A   Partly Cloudy
10:00 AM 38 °F - 34 °F 78% 29.68 in 4 mi NNE 5.8 mph - -   Mist
10:55 AM 41.0 °F 38.0 °F 35.6 °F 81% 29.68 in 6.2 mi North 4.6 mph - N/A   Mostly Cloudy
11:55 AM 41.0 °F 37.1 °F 37.4 °F 87% 29.68 in 3.7 mi North 5.8 mph - N/A Rain Light Rain
12:55 PM 42.8 °F 38.6 °F 39.2 °F 87% 29.65 in 3.7 mi NNE 6.9 mph - N/A Rain Light Rain
1:00 PM 43 °F - 39 °F 81% 29.66 in 4 mi NNE 6.9 mph - - Rain Light Drizzle
1:55 PM 44.6 °F 41.4 °F 41.0 °F 87% 29.62 in 3.1 mi NE 5.8 mph - N/A Rain Light Rain
2:55 PM 42.8 °F 38.6 °F 39.2 °F 87% 29.62 in 2.5 mi NNE 6.9 mph - N/A   Mostly Cloudy
3:55 PM 42.8 °F 38.6 °F 39.2 °F 87% 29.62 in 1.9 mi NE 6.9 mph - N/A   Light Drizzle
4:00 PM 43 °F - 40 °F 83% 29.62 in 2 mi NE 6.9 mph - - Rain Light Drizzle
4:55 PM 42.8 °F 39.3 °F 39.2 °F 87% 29.62 in 1.2 mi NNE 5.8 mph - N/A   Light Drizzle
5:55 PM 42.8 °F 38.6 °F 39.2 °F 87% 29.62 in 1.2 mi NNE 6.9 mph - N/A   Light Drizzle
6:55 PM 42.8 °F 38.0 °F 39.2 °F 87% 29.62 in 1.2 mi NNE 8.1 mph - N/A Rain Light Rain
7:00 PM 43 °F - 40 °F 83% 29.62 in 1 mi NNE 8.1 mph - - Rain Light Rain
7:55 PM 42.8 °F 38.6 °F 39.2 °F 87% 29.62 in 1.2 mi NNE 6.9 mph - N/A Rain Light Rain
8:55 PM 42.8 °F 39.3 °F 39.2 °F 87% 29.59 in 3.1 mi NNE 5.8 mph - N/A Rain Light Rain
9:55 PM 44.6 °F 40.7 °F 41.0 °F 87% 29.59 in 2.5 mi NNE 6.9 mph - N/A Rain Light Rain
10:00 PM 45 °F - 41 °F 81% 29.61 in 2 mi NNE 6.9 mph - - Rain Light Rain
10:55 PM 44.6 °F 40.7 °F 41.0 °F 87% 29.59 in 3.1 mi NNE 6.9 mph - N/A Rain Light Rain
11:55 PM 44.6 °F 40.7 °F 41.0 °F 87% 29.59 in 3.7 mi NNE 6.9 mph - N/A   Mostly Cloudy